STARLINK-32136, 61515

Orbit data source: Space-Track

STARLINK-32136, 61515 is a payload satellite owned by SpaceX/Seattle (US) in LEO that was launched on Tue, 15 Oct 2024 UTC via an FALCON 9 launch vehicle from the Air Force Eastern Test Range (AFETR). Payload-class satellites include a variety of spacecraft equipped with specific instruments for various scientific and technological missions. These include communications satellites like Starlink; space stations such as the ISS; scientific satellites like the Hubble; Earth observation satellites from companies like Planet Labs, Umbra, and HawkEye 360; GPS; miniature CubeSats for education and research; and military/defense satellites.

Loading next visibility...
Identifier
61515, 2024-183G
Orbit
LEO
Country
Flag of USUS
Related business
Manufacturer
SpaceX/Seattle
Mission
Operational Commercial Communications
Bus & Motor
STARLINK V2M, Unknown motor
Mass
730 kg wet, ~700 kg dry
Launch date (UTC)
2024-10-15 (1 year ago)
Launch vehicle
FALCON 9
Launch site
Air Force Eastern Test Range (AFETR)
Object type
Payload
Rocket body
Debris
Shape & HBR
Box + 2 Pan, 17.7 m
Radar Cross Section
33.884 m², Large (>1 m²)

Expand to show TLE details & history
Last TLE update: 13 hours ago

TLE from 13 hours ago
0 STARLINK-32136
1 61515U 24183G   25346.84975470 -.00000112  00000-0  83409-5 0  9994
2 61515  53.1591 186.0448 0001306  76.5728 283.5418 15.30188398 66357
Epoch: 2025-12-12T20:23Z
TLE epoch observation values (Epoch: 2025-12-12T20:23:38.806Z)
Latitude
-0.00002°
Longitude
158.34762°
Altitude
475.94 km
Speed
7.629 km/s
True Right ascension
12h 24m 10s
True Declination
0° 00' 00"
Sunlit
Object was in daylight at epoch
Visualization orbit readout
Latitude
Unknown
Longitude
Unknown
Altitude
Unknown
Speed
Unknown
Apparent Right ascension
Unknown
Apparent Declination
Unknown
Sunlit
N/A
Visualization observer readout
Local Sidereal Time
07:33:26
Azimuth
Unknown
Elevation
Unknown
Doppler factor
Unknown
Orbital elements
Apogee altitude
476.401 km
Perigee altitude
474.611 km
Semi-major axis
6,853.643 km
Eccentricity
0.00013
Inclination
53.1591°
RAAN
186.0448°
Arg. of periapsis
76.5728°
True anomaly
283.52725°
Mean anomaly
283.5418°
Eccentric anomaly
283.53452°
Mean motion
3.82526 °/min
Orbital period
94.11 mins
BSTAR
0.0000083409
Loading maneuver chart data...
Computing Atmospheric mass density...
Loading historical data...
Loading historical data...
Loading historical data...
Loading historical data...
Loading historical data...
Loading historical data...
Loading historical data...

Documentation

Showing up to 5 results
|